{"data":{"norad_id":56879,"epoch":"2026-09-19T19:18:23.019840Z","epoch_age_seconds":177635,"freshness":"STALE","line1":"1 56879U 23083D   26262.80443310  .00000357  00000+0  22512-4 0  9992","line2":"2 56879  43.0028  69.2864 0001915 257.2722 102.7916 15.27578940181310","mean_motion":15.2757894,"eccentricity":0.0001915,"inclination_deg":43.0028,"raan_deg":69.2864,"arg_perigee_deg":257.2722,"mean_anomaly_deg":102.7916,"bstar":2.2512e-5,"rev_number":18131,"period_min":94.266814126149,"perigee_km":481.7383523176,"apogee_km":484.36618780804,"semimajor_km":6861.1892700628,"source":"CELESTRAK","updated_at":"2026-09-21T09:00:33.519688Z"}}